sat.trackr.live / text

‹ back to catalog

KUIPER-00028

NORAD 63741 · 2025-088T

PAYLOAD ACTIVE UNKNOWN

§ Identity

Operator
Country
US
Launch date
2025-04-28
Launch site
AFETR
Launch vehicle
Mass (kg)
RCS (m²)

External: N2YO · Heavens-Above · Gunter

§ Orbital elements

Epoch: 2026-09-20T20:35:40.132032Z

Period
97.30 min
Inclination
51.9011°
Eccentricity
0.0000262
Mean motion
14.79927191 rev/d
Perigee alt
629.4 km
Apogee alt
629.7 km
Semi-major
7,007.7 km
B*
1.0371e-5
RAAN
310.0125°
Arg perigee
61.0707°
Mean anomaly
299.0282°
Rev number
7,696

§ Raw data

KUIPER-000281 63741U 25088T   26263.85810338 -.00000142  00000+0  10371-4 0  99922 63741  51.9011 310.0125 0000262  61.0707 299.0282 14.79927191 76963

JSON: /api/v1/satellites/63741 · /tle

For live sub-satellite position, see the globe view (requires WebGL).

§ Visibility from observer

Set your observer location to see the next 7 days of passes ≥ 10°. The values pass through the URL so the page stays shareable.

No JS? Fill the form by hand. The geolocation button needs JavaScript.